#timestamp,LO_Frequency,Hit,StdDev 
1644519615.8,286047001.6,N
1644519635.7,286047000.1,N
1644519655.5,286047000.7,N
1644519675.3,286046999.3,N
1644519695.2,286046995.6,N
1644519715.0,286046992.1,N
1644519715.9,286046992.1,N
1644519735.8,286046996.4,N
1644519755.6,286046989.3,N
1644519775.4,286046987.3,N
1644519795.3,286046987.9,N
1644519815.1,286046985.6,N
1644519835.8,286046983.9,N
1644519855.7,286046984.7,N
1644519875.5,286046985.2,N
1644519895.4,286046984.9,N
1644519915.2,286046980.9,N
1644519935.0,286046987.2,N
1644519935.9,286046987.2,N
1644519955.8,286046992.2,N
1644519975.6,286046992.5,N
1644519995.4,286046993.4,N
1644520015.3,286046995.9,N
1644520035.1,286047003.5,N
1644520055.9,286047005.4,N
1644520075.7,286047010.2,N
1644520095.5,286047010.3,N
1644520115.4,286047003.2,N
1644520135.2,286047003.6,N
1644520155.0,286047010.7,N
1644520155.9,286047010.7,N
1644520175.8,286047013.3,N
1644520195.6,286047013.4,N
1644520215.5,286047020.3,N
1644520235.3,286047021.8,N
1644520255.1,286047022.3,N
1644520275.9,286047017.5,N
1644520295.7,286047016.9,N
1644520315.5,286047016.9,N
1644520335.4,286047015.3,N
1644520355.2,286047022.7,N
1644520375.1,286047021.0,N
1644520376.0,286047021.0,N
1644520395.8,286047019.2,N
1644520415.6,286047025.0,N
1644520435.5,286047029.5,N
1644520455.3,286047031.4,N
1644520475.1,286047030.9,N
1644520495.9,286047032.6,N
1644520515.7,286047034.7,Y
1644520535.6,286047024.9,P
1644520555.4,286047028.8,P
1644520575.2,286047029.6,P
1644520595.1,286047028.9,Y
1644520596.0,286047028.9,P
1644520615.8,286047008.0,P
1644520635.6,286047010.3,N
1644520655.5,286047012.6,N
1644520675.3,286047009.4,N
1644520695.2,286047003.3,N
1644520715.9,286047003.6,N
1644520735.7,286046996.6,N
1644520755.6,286046994.6,N
1644520775.4,286046995.6,N
1644520795.2,286046994.1,N
1644520815.1,286046993.0,N
1644520816.0,286046993.0,N
1644520835.8,286046990.4,N
1644520855.7,286046996.1,N
1644520875.5,286046990.3,N
1644520895.3,286046989.8,N
1644520915.2,286046983.1,N
1644520935.0,286046976.2,N
1644520935.9,286046976.2,N
1644520955.8,286046970.1,N
1644520975.6,286046973.9,N
1644520995.4,286046977.6,N
1644521015.3,286046984.1,N
1644521035.1,286046988.5,N
1644521036.0,286046988.5,N
1644521055.8,286046990.2,N
1644521075.7,286046990.7,N
1644521095.5,286046987.3,N
1644521115.3,286046988.3,N
1644521135.2,286046982.8,N
1644521155.0,286046979.6,N
1644521155.9,286046979.6,N
1644521175.8,286046983.2,N
1644521195.6,286046983.9,N
1644521215.4,286046987.1,N
1644521235.3,286046992.8,N
1644521255.1,286046999.6,N
1644521275.8,286046998.1,N
1644521295.7,286047000.8,N
1644521315.5,286046996.6,N
1644521335.4,286046997.9,N
1644521355.2,286046999.0,N
1644521375.0,286046996.1,N
1644521375.9,286046996.1,N
1644521395.8,286047000.2,N
1644521415.6,286047002.1,N
1644521435.4,286047006.8,N
1644521455.3,286047003.1,N
1644521475.1,286047002.8,N
1644521495.9,286047002.7,N
1644521515.7,286046999.1,N
1644521535.5,286046995.3,N
1644521555.4,286046996.0,N
1644521575.2,286046990.8,N
1644521595.0,286046992.5,N
1644521596.0,286046992.5,N
1644521615.8,286046993.5,N
1644521635.6,286046993.7,N
1644521655.5,286046992.4,N
1644521675.3,286046987.9,N
1644521695.1,286046989.9,N
1644521715.9,286046989.8,N
1644521735.7,286046987.2,N
1644521755.5,286046987.3,N
1644521775.4,286046997.6,N
1644521795.2,286046995.3,N
1644521815.1,286046991.2,N
1644521816.0,286046991.2,N
1644521835.8,286046995.9,N
1644521855.6,286046993.3,N
1644521875.5,286046991.1,N
1644521895.3,286046989.9,N
1644521915.1,286046994.6,N
1644521935.9,286046996.6,N
1644521955.7,286046998.3,N
1644521975.6,286047002.8,N
1644521995.4,286046996.9,N
1644522015.2,286046993.2,N
1644522035.1,286046994.9,N
1644522036.0,286046994.9,N
1644522055.8,286046996.8,N
1644522075.6,286046993.2,N
1644522095.5,286046984.2,Y
1644522115.3,286046991.3,P
1644522135.2,286046995.5,P
1644522155.9,286046994.2,P
1644522175.7,286046992.4,Y
1644522195.6,286047002.3,P
1644522215.4,286047009.9,N
1644522235.3,286047005.0,N
1644522255.1,286047003.5,N
1644522256.0,286047003.5,N
1644522275.8,286047005.1,N
1644522295.7,286047007.9,N
1644522315.5,286047011.3,N
1644522335.3,286047006.1,N
1644522355.2,286047005.9,N
1644522375.0,286047000.1,N
1644522375.9,286047000.1,N
1644522395.8,286046995.2,N
1644522415.6,286046998.6,N
1644522435.4,286047006.6,N
1644522455.3,286047004.4,N
1644522475.1,286046999.1,N
1644522495.8,286046999.3,N
1644522515.7,286047002.5,N
1644522535.5,286046999.8,N
1644522555.4,286047005.0,N
1644522575.2,286047003.2,N
1644522595.0,286047007.6,N
1644522595.9,286047007.6,N
1644522615.8,286047007.6,N
1644522635.6,286047003.1,N
1644522655.4,286047005.5,N
1644522675.3,286047002.9,N
1644522695.1,286047004.0,N
1644522715.9,286046996.5,N
1644522735.7,286046996.3,N
1644522755.5,286046997.4,N
1644522775.4,286046998.0,N
1644522795.2,286046995.0,N
1644522815.0,286047011.9,N
1644522815.9,286046990.3,N
1644522835.8,286046988.9,N
1644522855.6,286046996.1,N
1644522875.5,286046993.1,N
1644522895.3,286046992.3,N
1644522915.1,286046994.3,N
1644522935.9,286046996.3,N
1644522955.7,286046995.5,N
1644522975.5,286046997.5,N
1644522995.4,286046990.3,N
1644523015.2,286046989.6,N
1644523035.1,286046994.6,N
1644523036.0,286046994.6,N
1644523055.8,286046999.4,N
1644523075.6,286046997.4,N
1644523095.5,286046992.9,N
1644523115.3,286046987.8,N
1644523135.1,286046985.4,N
1644523155.9,286046989.9,N
1644523175.7,286046985.2,N
1644523195.6,286046980.1,Y
